When you browse on this site, cookies collect data to enhance your experience and personalize the content and advertising you see.
Visit our Privacy Policy to learn more. By continuing to use the site, you agree to this use of cookies and data.
  • în România
  • Lista ţărilor
  • Pe 7 zile
  • Temperatura apei
  • Meteo pe hartă
  • Widget-uri
  • user-avatar
    Intrare

    Meteo pe oră la Dobrich

    Astăzi, 15 Octombrie, Marţi

    Timp Temperatura Precipitaţii Vânt Presiune Umiditate
    00:00 +13°C° 0 mm 1 m/s 742 mmHg 93%
    01:00 +13°C° 0 mm 1 m/s 742 mmHg 93%
    02:00 +13°C° 0 mm 1 m/s 742 mmHg 93%
    03:00 +13°C° 0 mm 1 m/s 742 mmHg 93%
    04:00 +13°C° 0 mm 1 m/s 742 mmHg 93%
    05:00 +12°C° 0 mm 1 m/s 741 mmHg 93%
    06:00 +13°C° 0 mm 1 m/s 742 mmHg 91%
    07:00 +14°C° 0 mm 1 m/s 742 mmHg 89%
    08:00 +15°C° 0 mm 2 m/s 742 mmHg 87%
    09:00 +17°C° 0 mm 2 m/s 742 mmHg 76%
    10:00 +19°C° 0 mm 2 m/s 742 mmHg 66%
    11:00 +21°C° 0 mm 2 m/s 742 mmHg 55%
    12:00 +21°C° 0 mm 2 m/s 742 mmHg 52%
    13:00 +23°C° 0 mm 2 m/s 742 mmHg 50%
    14:00 +24°C° 0 mm 3 m/s 741 mmHg 47%
    15:00 +21°C° 0 mm 3 m/s 741 mmHg 55%
    16:00 +20°C° 0 mm 3 m/s 741 mmHg 63%
    17:00 +18°C° 0 mm 3 m/s 740 mmHg 71%
    18:00 +17°C° 0 mm 3 m/s 740 mmHg 78%
    19:00 +16°C° 0 mm 2 m/s 740 mmHg 85%
    20:00 +15°C° 0 mm 2 m/s 741 mmHg 92%
    21:00 +14°C° 0 mm 2 m/s 741 mmHg 93%
    22:00 +14°C° 0 mm 2 m/s 741 mmHg 94%
    23:00 +14°C° 0 mm 2 m/s 740 mmHg 94%

    Mâine, 16 Octombrie, Miercuri

    Timp Temperatura Precipitaţii Vânt Presiune Umiditate
    00:00 +14°C° 0 mm 2 m/s 740 mmHg 94%
    01:00 +13°C° 0 mm 1 m/s 740 mmHg 94%
    02:00 +13°C° 0 mm 1 m/s 740 mmHg 94%
    03:00 +13°C° 0 mm 1 m/s 740 mmHg 93%
    04:00 +13°C° 0 mm 1 m/s 740 mmHg 93%
    05:00 +13°C° 0 mm 2 m/s 740 mmHg 93%
    06:00 +13°C° 0 mm 2 m/s 740 mmHg 90%
    07:00 +14°C° 0 mm 1 m/s 740 mmHg 87%
    08:00 +15°C° 0 mm 1 m/s 741 mmHg 84%
    09:00 +17°C° 0 mm 2 m/s 741 mmHg 72%
    10:00 +19°C° 0 mm 2 m/s 741 mmHg 59%
    11:00 +21°C° 0 mm 2 m/s 741 mmHg 47%
    12:00 +23°C° 0 mm 2 m/s 741 mmHg 44%
    13:00 +24°C° 0 mm 2 m/s 741 mmHg 41%
    14:00 +25°C° 0 mm 2 m/s 741 mmHg 38%
    15:00 +23°C° 0 mm 2 m/s 740 mmHg 45%
    16:00 +21°C° 0 mm 2 m/s 740 mmHg 51%
    17:00 +19°C° 0 mm 3 m/s 740 mmHg 58%
    18:00 +18°C° 0 mm 2 m/s 740 mmHg 65%
    19:00 +16°C° 0 mm 2 m/s 740 mmHg 72%
    20:00 +15°C° 0 mm 2 m/s 740 mmHg 79%
    21:00 +15°C° 0 mm 2 m/s 740 mmHg 81%
    22:00 +14°C° 0 mm 1 m/s 740 mmHg 83%
    23:00 +14°C° 0 mm 1 m/s 741 mmHg 85%

    Poimâine, 17 Octombrie, Joi

    Timp Temperatura Precipitaţii Vânt Presiune Umiditate
    00:00 +14°C° 0 mm 1 m/s 740 mmHg 85%
    01:00 +13°C° 0 mm 1 m/s 740 mmHg 84%
    02:00 +13°C° 0 mm 1 m/s 740 mmHg 83%
    03:00 +13°C° 0 mm 1 m/s 740 mmHg 82%
    04:00 +13°C° 0 mm 1 m/s 740 mmHg 81%
    05:00 +13°C° 0 mm 1 m/s 740 mmHg 79%
    06:00 +14°C° 0 mm 1 m/s 740 mmHg 75%
    07:00 +15°C° 0 mm 1 m/s 741 mmHg 70%
    08:00 +15°C° 0 mm 1 m/s 741 mmHg 66%
    09:00 +18°C° 0 mm 1 m/s 741 mmHg 58%
    10:00 +21°C° 0 mm 1 m/s 741 mmHg 50%
    11:00 +23°C° 0 mm 1 m/s 741 mmHg 41%
    12:00 +23°C° 0 mm 1 m/s 741 mmHg 39%
    13:00 +24°C° 0 mm 1 m/s 741 mmHg 36%
    14:00 +25°C° 0 mm 2 m/s 741 mmHg 33%
    15:00 +24°C° 0 mm 2 m/s 741 mmHg 39%
    16:00 +21°C° 0 mm 2 m/s 741 mmHg 45%
    17:00 +20°C° 0 mm 2 m/s 740 mmHg 51%
    18:00 +20°C° 0 mm 1 m/s 740 mmHg 56%
    19:00 +19°C° 0 mm 1 m/s 741 mmHg 61%
    20:00 +18°C° 0 mm 1 m/s 741 mmHg 65%
    21:00 +16°C° 0 mm 1 m/s 741 mmHg 64%
    22:00 +15°C° 0 mm 0 m/s 741 mmHg 63%
    23:00 +15°C° 0 mm 0 m/s 741 mmHg 62%

    18 Octombrie, Vineri

    Timp Temperatura Precipitaţii Vânt Presiune Umiditate
    00:00 +15°C° 0 mm 0 m/s 741 mmHg 62%
    01:00 +14°C° 0 mm 0 m/s 741 mmHg 62%
    02:00 +14°C° 0 mm 0 m/s 741 mmHg 62%
    03:00 +14°C° 0 mm 0 m/s 741 mmHg 62%
    04:00 +14°C° 0 mm 0 m/s 741 mmHg 62%
    05:00 +14°C° 0 mm 1 m/s 741 mmHg 63%
    06:00 +15°C° 0 mm 1 m/s 741 mmHg 61%
    07:00 +16°C° 0 mm 1 m/s 741 mmHg 58%
    08:00 +18°C° 0 mm 1 m/s 741 mmHg 56%
    09:00 +19°C° 0 mm 1 m/s 742 mmHg 50%
    10:00 +21°C° 0 mm 1 m/s 742 mmHg 44%
    11:00 +23°C° 0 mm 2 m/s 742 mmHg 38%
    12:00 +24°C° 0 mm 2 m/s 742 mmHg 36%
    13:00 +24°C° 0 mm 2 m/s 742 mmHg 34%
    14:00 +25°C° 0 mm 2 m/s 741 mmHg 32%
    15:00 +24°C° 0 mm 2 m/s 741 mmHg 38%
    16:00 +21°C° 0 mm 2 m/s 741 mmHg 45%
    17:00 +20°C° 0 mm 2 m/s 741 mmHg 52%
    18:00 +18°C° 0 mm 2 m/s 741 mmHg 59%
    19:00 +18°C° 0 mm 1 m/s 741 mmHg 66%
    20:00 +16°C° 0 mm 1 m/s 741 mmHg 73%
    21:00 +15°C° 0 mm 1 m/s 741 mmHg 72%
    22:00 +15°C° 0 mm 1 m/s 741 mmHg 71%
    23:00 +15°C° 0 mm 1 m/s 741 mmHg 70%

    19 Octombrie, Sâmbătă

    Timp Temperatura Precipitaţii Vânt Presiune Umiditate
    00:00 +15°C° 0 mm 1 m/s 741 mmHg 70%
    01:00 +14°C° 0 mm 1 m/s 741 mmHg 70%
    02:00 +14°C° 0 mm 1 m/s 741 mmHg 70%
    03:00 +14°C° 0 mm 1 m/s 741 mmHg 71%
    04:00 +13°C° 0 mm 1 m/s 741 mmHg 72%
    05:00 +13°C° 0 mm 1 m/s 741 mmHg 74%
    06:00 +14°C° 0 mm 1 m/s 741 mmHg 72%
    07:00 +15°C° 0 mm 1 m/s 742 mmHg 70%
    08:00 +15°C° 0 mm 1 m/s 742 mmHg 68%
    09:00 +17°C° 0 mm 2 m/s 742 mmHg 60%
    10:00 +19°C° 0 mm 2 m/s 742 mmHg 51%
    11:00 +21°C° 0 mm 3 m/s 743 mmHg 43%
    12:00 +22°C° 0 mm 3 m/s 742 mmHg 41%
    13:00 +24°C° 0 mm 3 m/s 742 mmHg 38%
    14:00 +24°C° 0 mm 3 m/s 742 mmHg 36%
    15:00 +22°C° 0 mm 3 m/s 742 mmHg 42%
    16:00 +20°C° 0 mm 3 m/s 742 mmHg 48%
    17:00 +19°C° 0 mm 3 m/s 741 mmHg 54%
    18:00 +18°C° 0 mm 3 m/s 742 mmHg 64%
    19:00 +16°C° 0 mm 2 m/s 742 mmHg 74%
    20:00 +15°C° 0 mm 2 m/s 742 mmHg 83%
    21:00 +15°C° 0 mm 2 m/s 742 mmHg 86%
    22:00 +14°C° 0 mm 2 m/s 742 mmHg 89%
    23:00 +14°C° 0 mm 2 m/s 742 mmHg 91%

    20 Octombrie, Duminică

    Timp Temperatura Precipitaţii Vânt Presiune Umiditate
    00:00 +14°C° 0 mm 2 m/s 742 mmHg 91%
    01:00 +13°C° 0 mm 1 m/s 742 mmHg 91%
    02:00 +13°C° 0 mm 1 m/s 742 mmHg 91%
    03:00 +13°C° 0 mm 1 m/s 742 mmHg 90%
    04:00 +13°C° 0 mm 1 m/s 742 mmHg 90%
    05:00 +13°C° 0 mm 1 m/s 742 mmHg 89%
    06:00 +13°C° 0 mm 1 m/s 742 mmHg 86%
    07:00 +14°C° 0 mm 1 m/s 742 mmHg 83%
    08:00 +15°C° 0 mm 1 m/s 742 mmHg 79%
    09:00 +17°C° 0 mm 2 m/s 743 mmHg 68%
    10:00 +19°C° 0 mm 2 m/s 743 mmHg 58%
    11:00 +21°C° 0 mm 2 m/s 743 mmHg 47%
    12:00 +21°C° 0 mm 3 m/s 743 mmHg 44%
    13:00 +22°C° 0 mm 3 m/s 743 mmHg 42%
    14:00 +22°C° 0 mm 3 m/s 742 mmHg 39%
    15:00 +21°C° 0 mm 3 m/s 742 mmHg 44%
    16:00 +20°C° 0 mm 2 m/s 742 mmHg 49%
    17:00 +18°C° 0 mm 2 m/s 742 mmHg 55%
    18:00 +17°C° 0 mm 2 m/s 742 mmHg 60%
    19:00 +16°C° 0 mm 2 m/s 742 mmHg 66%
    20:00 +15°C° 0 mm 2 m/s 742 mmHg 71%
    21:00 +15°C° 0 mm 2 m/s 743 mmHg 73%
    22:00 +14°C° 0 mm 1 m/s 743 mmHg 75%
    23:00 +14°C° 0 mm 1 m/s 743 mmHg 78%
    Arată mai mult